Time,TemperatureF,DewpointF,PressureIn,WindDirection,WindDirectionDegrees,WindSpeedMPH,WindSpeedGustMPH,Humidity,HourlyPrecipIn,Conditions,Clouds,dailyrainin,SoftwareType,DateUTC
2013-04-03 00:11:00,34.1,21.0,30.24,NW,325,1.0,6.0,58,0.00,,,0.00,weatherlink.com 1.10,2013-04-03 04:11:00,
2013-04-03 00:26:00,34.0,20.0,30.24,North,359,0.0,4.0,58,0.00,,,0.00,weatherlink.com 1.10,2013-04-03 04:26:00,
2013-04-03 00:41:00,33.8,20.0,30.24,North,354,1.0,6.0,58,0.00,,,0.00,weatherlink.com 1.10,2013-04-03 04:41:00,
2013-04-03 00:56:00,33.5,20.0,30.24,WNW,293,1.0,7.0,59,0.00,,,0.00,weatherlink.com 1.10,2013-04-03 04:56:00,
2013-04-03 01:26:00,33.0,20.0,30.25,NNE,29,1.0,5.0,59,0.00,,,0.00,weatherlink.com 1.10,2013-04-03 05:26:00,
2013-04-03 01:41:00,32.8,19.0,30.25,WNW,294,2.0,4.0,57,0.00,,,0.00,weatherlink.com 1.10,2013-04-03 05:41:00,
2013-04-03 01:56:00,32.4,18.0,30.25,NNW,332,0.0,7.0,56,0.00,,,0.00,weatherlink.com 1.10,2013-04-03 05:56:00,
2013-04-03 02:11:00,32.2,18.0,30.25,WSW,249,3.0,9.0,55,0.00,,,0.00,weatherlink.com 1.10,2013-04-03 06:11:00,
2013-04-03 02:26:00,32.3,18.0,30.26,East,82,5.0,10.0,57,0.00,,,0.00,weatherlink.com 1.10,2013-04-03 06:26:00,
2013-04-03 02:41:00,32.0,18.0,30.26,ESE,108,2.0,11.0,57,0.00,,,0.00,weatherlink.com 1.10,2013-04-03 06:41:00,
2013-04-03 03:11:00,31.1,19.0,30.26,NNW,335,2.0,6.0,60,0.00,,,0.00,weatherlink.com 1.10,2013-04-03 07:11:00,
2013-04-03 03:26:00,30.8,17.0,30.26,NW,305,1.0,6.0,57,0.00,,,0.00,weatherlink.com 1.10,2013-04-03 07:26:00,
2013-04-03 03:41:00,30.6,16.0,30.26,NNE,30,2.0,8.0,55,0.00,,,0.00,weatherlink.com 1.10,2013-04-03 07:41:00,
2013-04-03 03:56:00,30.4,16.0,30.27,NE,43,0.0,4.0,55,0.00,,,0.00,weatherlink.com 1.10,2013-04-03 07:56:00,
2013-04-03 04:11:00,30.1,16.0,30.27,NNW,341,0.0,4.0,56,0.00,,,0.00,weatherlink.com 1.10,2013-04-03 08:11:00,
2013-04-03 04:26:00,29.9,16.0,30.28,NW,313,0.0,4.0,57,0.00,,,0.00,weatherlink.com 1.10,2013-04-03 08:26:00,
2013-04-03 04:41:00,29.6,16.0,30.28,NW,313,0.0,1.0,58,0.00,,,0.00,weatherlink.com 1.10,2013-04-03 08:41:00,
2013-04-03 04:56:00,29.2,18.0,30.29,NW,312,0.0,0.0,62,0.00,,,0.00,weatherlink.com 1.10,2013-04-03 08:56:00,
2013-04-03 05:11:00,28.9,18.0,30.29,NW,312,0.0,0.0,65,0.00,,,0.00,weatherlink.com 1.10,2013-04-03 09:11:00,
2013-04-03 05:26:00,28.6,18.0,30.29,NW,313,0.0,0.0,66,0.00,,,0.00,weatherlink.com 1.10,2013-04-03 09:26:00,
2013-04-03 05:41:00,28.1,18.0,30.30,NW,312,0.0,0.0,67,0.00,,,0.00,weatherlink.com 1.10,2013-04-03 09:41:00,
2013-04-03 05:56:00,27.8,18.0,30.30,NW,313,0.0,0.0,67,0.00,,,0.00,weatherlink.com 1.10,2013-04-03 09:56:00,
2013-04-03 06:11:00,27.3,18.0,30.30,NW,312,0.0,0.0,67,0.00,,,0.00,weatherlink.com 1.10,2013-04-03 10:11:00,
2013-04-03 06:42:00,26.6,19.0,30.31,NW,313,0.0,0.0,72,0.00,,,0.00,weatherlink.com 1.10,2013-04-03 10:42:00,
2013-04-03 06:57:00,26.2,19.0,30.32,NW,312,0.0,1.0,73,0.00,,,0.00,weatherlink.com 1.10,2013-04-03 10:57:00,
2013-04-03 07:12:00,25.8,18.0,30.32,NW,312,0.0,0.0,73,0.00,,,0.00,weatherlink.com 1.10,2013-04-03 11:12:00,
2013-04-03 07:27:00,25.5,19.0,30.33,NW,312,0.0,0.0,75,0.00,,,0.00,weatherlink.com 1.10,2013-04-03 11:27:00,
2013-04-03 07:42:00,25.4,19.0,30.34,NW,313,0.0,0.0,76,0.00,,,0.00,weatherlink.com 1.10,2013-04-03 11:42:00,
2013-04-03 07:57:00,25.6,19.0,30.34,NW,312,0.0,1.0,77,0.00,,,0.00,weatherlink.com 1.10,2013-04-03 11:57:00,
2013-04-03 08:12:00,25.9,19.0,30.34,NW,312,0.0,1.0,76,0.00,,,0.00,weatherlink.com 1.10,2013-04-03 12:12:00,
2013-04-03 08:27:00,26.6,19.0,30.34,West,260,0.0,1.0,74,0.00,,,0.00,weatherlink.com 1.10,2013-04-03 12:27:00,
2013-04-03 08:42:00,27.9,19.0,30.34,SW,231,1.0,2.0,68,0.00,,,0.00,weatherlink.com 1.10,2013-04-03 12:42:00,
2013-04-03 08:57:00,29.5,19.0,30.34,SSW,201,2.0,5.0,65,0.00,,,0.00,weatherlink.com 1.10,2013-04-03 12:57:00,
2013-04-03 09:12:00,31.0,19.0,30.34,West,264,1.0,5.0,61,0.00,,,0.00,weatherlink.com 1.10,2013-04-03 13:12:00,
2013-04-03 09:27:00,32.5,19.0,30.33,WNW,283,5.0,7.0,59,0.00,,,0.00,weatherlink.com 1.10,2013-04-03 13:27:00,
2013-04-03 09:42:00,33.8,20.0,30.35,West,270,5.0,7.0,57,0.00,,,0.00,weatherlink.com 1.10,2013-04-03 13:42:00,
2013-04-03 09:57:00,34.2,20.0,30.36,SW,225,4.0,8.0,57,0.00,,,0.00,weatherlink.com 1.10,2013-04-03 13:57:00,
2013-04-03 10:12:00,33.7,22.0,30.37,West,267,2.0,8.0,62,0.00,,,0.00,weatherlink.com 1.10,2013-04-03 14:12:00,
2013-04-03 10:27:00,34.6,24.0,30.37,WNW,284,4.0,14.0,65,0.00,,,0.00,weatherlink.com 1.10,2013-04-03 14:27:00,
2013-04-03 10:42:00,35.3,23.0,30.37,SSE,152,4.0,11.0,62,0.00,,,0.00,weatherlink.com 1.10,2013-04-03 14:42:00,
2013-04-03 10:57:00,34.4,23.0,30.39,WSW,247,6.0,10.0,63,0.00,,,0.00,weatherlink.com 1.10,2013-04-03 14:57:00,
2013-04-03 11:12:00,35.4,23.0,30.39,NW,305,6.0,14.0,60,0.00,,,0.00,weatherlink.com 1.10,2013-04-03 15:12:00,
2013-04-03 11:27:00,35.0,23.0,30.39,NNW,343,8.0,14.0,62,0.00,,,0.00,weatherlink.com 1.10,2013-04-03 15:27:00,
2013-04-03 11:42:00,34.3,23.0,30.40,West,273,0.0,13.0,63,0.00,,,0.00,weatherlink.com 1.10,2013-04-03 15:42:00,
2013-04-03 11:57:00,34.3,22.0,30.41,ENE,69,9.0,10.0,60,0.00,,,0.00,weatherlink.com 1.10,2013-04-03 15:57:00,
2013-04-03 12:12:00,34.8,22.0,30.42,NW,310,6.0,10.0,59,0.00,,,0.00,weatherlink.com 1.10,2013-04-03 16:12:00,
2013-04-03 12:27:00,35.3,20.0,30.42,ENE,72,2.0,13.0,55,0.00,,,0.00,weatherlink.com 1.10,2013-04-03 16:27:00,
2013-04-03 12:42:00,34.5,18.0,30.42,NNE,19,5.0,12.0,52,0.00,,,0.00,weatherlink.com 1.10,2013-04-03 16:42:00,
2013-04-03 12:57:00,35.0,19.0,30.42,NNE,13,1.0,13.0,52,0.00,,,0.00,weatherlink.com 1.10,2013-04-03 16:57:00,
2013-04-03 13:12:00,35.2,19.0,30.43,WSW,255,6.0,14.0,51,0.00,,,0.00,weatherlink.com 1.10,2013-04-03 17:12:00,
2013-04-03 13:42:00,34.9,17.0,30.44,North,4,6.0,17.0,48,0.00,,,0.00,weatherlink.com 1.10,2013-04-03 17:42:00,
2013-04-03 13:57:00,34.1,17.0,30.44,NNE,16,3.0,13.0,49,0.00,,,0.00,weatherlink.com 1.10,2013-04-03 17:57:00,
2013-04-03 14:12:00,35.2,18.0,30.43,NNE,18,1.0,13.0,49,0.00,,,0.00,weatherlink.com 1.10,2013-04-03 18:12:00,
2013-04-03 14:27:00,34.8,18.0,30.44,East,82,2.0,12.0,51,0.00,,,0.00,weatherlink.com 1.10,2013-04-03 18:27:00,
2013-04-03 14:42:00,36.0,18.0,30.44,WNW,299,8.0,19.0,48,0.00,,,0.00,weatherlink.com 1.10,2013-04-03 18:42:00,
2013-04-03 14:57:00,36.1,17.0,30.44,West,261,7.0,10.0,47,0.00,,,0.00,weatherlink.com 1.10,2013-04-03 18:57:00,
2013-04-03 15:12:00,36.5,17.0,30.45,West,270,3.0,9.0,46,0.00,,,0.00,weatherlink.com 1.10,2013-04-03 19:12:00,
2013-04-03 15:27:00,36.5,19.0,30.45,NNW,336,4.0,9.0,49,0.00,,,0.00,weatherlink.com 1.10,2013-04-03 19:27:00,
2013-04-03 15:42:00,36.3,17.0,30.44,NNW,345,2.0,13.0,46,0.00,,,0.00,weatherlink.com 1.10,2013-04-03 19:42:00,
2013-04-03 15:57:00,35.9,17.0,30.44,SE,131,0.0,9.0,47,0.00,,,0.00,weatherlink.com 1.10,2013-04-03 19:57:00,
2013-04-03 16:12:00,37.1,18.0,30.44,NW,306,6.0,9.0,46,0.00,,,0.00,weatherlink.com 1.10,2013-04-03 20:12:00,
2013-04-03 16:27:00,36.2,16.0,30.44,NNW,343,2.0,11.0,43,0.00,,,0.00,weatherlink.com 1.10,2013-04-03 20:27:00,
2013-04-03 16:42:00,36.5,17.0,30.44,NNW,331,2.0,9.0,45,0.00,,,0.00,weatherlink.com 1.10,2013-04-03 20:42:00,
2013-04-03 16:57:00,37.3,17.0,30.44,WNW,283,2.0,10.0,44,0.00,,,0.00,weatherlink.com 1.10,2013-04-03 20:57:00,
2013-04-03 17:12:00,37.0,16.0,30.44,NW,313,2.0,6.0,43,0.00,,,0.00,weatherlink.com 1.10,2013-04-03 21:12:00,
2013-04-03 17:27:00,36.9,16.0,30.45,North,4,3.0,9.0,43,0.00,,,0.00,weatherlink.com 1.10,2013-04-03 21:27:00,
2013-04-03 17:42:00,36.8,14.0,30.46,ENE,58,2.0,10.0,40,0.00,,,0.00,weatherlink.com 1.10,2013-04-03 21:42:00,
2013-04-03 17:57:00,36.5,15.0,30.45,NE,34,4.0,9.0,42,0.00,,,0.00,weatherlink.com 1.10,2013-04-03 21:57:00,
2013-04-03 18:12:00,35.9,14.0,30.46,NE,43,6.0,10.0,40,0.00,,,0.00,weatherlink.com 1.10,2013-04-03 22:12:00,
2013-04-03 18:28:00,35.6,14.0,30.46,West,279,2.0,7.0,41,0.00,,,0.00,weatherlink.com 1.10,2013-04-03 22:28:00,
2013-04-03 18:43:00,35.6,14.0,30.46,East,96,2.0,3.0,42,0.00,,,0.00,weatherlink.com 1.10,2013-04-03 22:43:00,
2013-04-03 18:58:00,35.2,14.0,30.47,NE,41,4.0,6.0,41,0.00,,,0.00,weatherlink.com 1.10,2013-04-03 22:58:00,
2013-04-03 19:13:00,35.0,13.0,30.46,East,81,1.0,5.0,41,0.00,,,0.00,weatherlink.com 1.10,2013-04-03 23:13:00,
2013-04-03 19:28:00,34.7,14.0,30.46,ENE,76,0.0,3.0,42,0.00,,,0.00,weatherlink.com 1.10,2013-04-03 23:28:00,
2013-04-03 19:43:00,34.3,13.0,30.46,NE,49,0.0,3.0,42,0.00,,,0.00,weatherlink.com 1.10,2013-04-03 23:43:00,
2013-04-03 19:58:00,33.8,13.0,30.45,ENE,68,0.0,3.0,42,0.00,,,0.00,weatherlink.com 1.10,2013-04-03 23:58:00,
2013-04-03 20:13:00,33.4,13.0,30.45,ENE,68,0.0,0.0,43,0.00,,,0.00,weatherlink.com 1.10,2013-04-04 00:13:00,
2013-04-03 20:28:00,33.0,14.0,30.44,ENE,68,0.0,0.0,46,0.00,,,0.00,weatherlink.com 1.10,2013-04-04 00:28:00,
2013-04-03 20:43:00,32.5,15.0,30.44,ENE,68,0.0,0.0,48,0.00,,,0.00,weatherlink.com 1.10,2013-04-04 00:43:00,
2013-04-03 20:58:00,31.9,15.0,30.43,ENE,68,0.0,0.0,51,0.00,,,0.00,weatherlink.com 1.10,2013-04-04 00:58:00,
2013-04-03 21:13:00,31.5,16.0,30.43,ENE,68,0.0,0.0,53,0.00,,,0.00,weatherlink.com 1.10,2013-04-04 01:13:00,
2013-04-03 21:28:00,31.2,16.0,30.43,ENE,68,0.0,0.0,53,0.00,,,0.00,weatherlink.com 1.10,2013-04-04 01:28:00,
2013-04-03 21:43:00,30.8,16.0,30.42,ENE,68,0.0,0.0,54,0.00,,,0.00,weatherlink.com 1.10,2013-04-04 01:43:00,
2013-04-03 21:58:00,30.3,16.0,30.42,ENE,68,0.0,0.0,56,0.00,,,0.00,weatherlink.com 1.10,2013-04-04 01:58:00,
2013-04-03 22:13:00,29.9,16.0,30.42,ENE,68,0.0,0.0,57,0.00,,,0.00,weatherlink.com 1.10,2013-04-04 02:13:00,
2013-04-03 22:28:00,29.4,16.0,30.41,ENE,68,0.0,0.0,57,0.00,,,0.00,weatherlink.com 1.10,2013-04-04 02:28:00,
2013-04-03 22:43:00,28.9,16.0,30.41,ENE,68,0.0,0.0,59,0.00,,,0.00,weatherlink.com 1.10,2013-04-04 02:43:00,
2013-04-03 22:58:00,28.7,16.0,30.41,ENE,68,0.0,0.0,59,0.00,,,0.00,weatherlink.com 1.10,2013-04-04 02:58:00,
2013-04-03 23:13:00,28.4,16.0,30.41,ENE,68,0.0,0.0,61,0.00,,,0.00,weatherlink.com 1.10,2013-04-04 03:13:00,
2013-04-03 23:28:00,28.1,16.0,30.41,ENE,68,0.0,0.0,62,0.00,,,0.00,weatherlink.com 1.10,2013-04-04 03:28:00,
2013-04-03 23:43:00,27.7,17.0,30.43,ENE,68,0.0,0.0,64,0.00,,,0.00,weatherlink.com 1.10,2013-04-04 03:43:00,
2013-04-03 23:58:00,27.3,17.0,30.43,ENE,68,0.0,0.0,66,0.00,,,0.00,weatherlink.com 1.10,2013-04-04 03:58:00,